User: anonymous   Login
Location: Twentynine Palms Airport
(34.1316°N, 115.9458°W)
Time: 04:14:52
(UTC-08:00)
Language:

Oscar 19 - Orbit

View from above orbital plane
View from above orbital plane
View from above satellite
View from above satellite

Ground track
Ground track

The orbit data is extracted from the following two-line orbital elements,

1 20442U 90005G   15024.82648175  .00000082  00000-0  46136-4 0  1580
2 20442 098.5004 323.2134 0011389 207.2358 152.8230 14.32673491306412
Epoch (UTC): 24 January 2015 19:50:08
Eccentricity: 0.0011389
inclination: 98.5004°
perigee height: 774 km
apogee height: 791 km
right ascension of ascending node: 323.2134°
argument of perigee: 207.2358°
revolutions per day: 14.32673491
mean anomaly at epoch: 152.8230°
orbit number at epoch: 30641

The dashed part of the orbit path shows where the satellite is in the earth's shadow,  

DLR